JCSAT-110A (JCSAT-15)

Last updated on Wed Jul 16 2025 00:02:48 GMT+0000 (Coordinated Universal Time)

1 41903U 16082A 25195.75214632 -.00000343 00000+0 00000+0 0 9995 2 41903 0.0185 51.8578 0000686 70.8660 190.9600 1.00270792 31371
UTC large
Height (km)
Speed (km/s)
/
Latitude / Longitude
Inclination (degrees)
Orbital Period (minutes)
Azimuth
Elevation
Range (km)
Doppler Factor

Next 0 passes for location: London (51.5072 / 0.1276)

Sorry there are no passes over London.